Location: Cluj-Napoca
(46.7712°N, 23.6236°E)
Time: 20:56:41
(UTC+02:00)

First-Move - Pass Details

Date: 30 November 2021
Orbit: 574 x 665 km, 97.6° (Epoch: 28 January)

Event Time Altitude Azimuth Distance (km) Brightness Sun altitude
Rises 06:13:28 0° 360° (N) 2,984 ? -15.7°
Reaches altitude 10° 06:16:08 10° 344° (NNW) 2,080 ? -15.3°
Enters shadow 06:17:46 17° 325° (NW) 1,673 ? -15.0°
